Content
SEND FEEDBACK

Daily
Averages
Monthly
Summary
United States of America

CHICAGO, ILLINOIS


Home > North America > United States > Illinois
Elevation: 674 feet     Latitude: 41 59N     Longitude: 087 54W

WEATHER
 
SELECT A DAY
Number of Records: 199,610;   Date Range: 7/8/95 - 12/19/14
 
SHARE

PRINT THIS DATA

[ ← Previous Day ]
WEATHER ALMANAC - MAY 15, 2014
[ Next Day → ]
[ °C ]   °F
Weather ElementAverageHighLow
Temperature44.7 °F53.1 °F (12:52 pm)39.9 °F (10:52 pm)
Dewpoint38.5 °F42.8 °F (12:48 am)33.1 °F (5:52 pm)
Humidity80.1 %93 % (12:38 am)52 % (5:52 pm)
Barometer29.99 in30.10 in (9:52 pm)29.91 in (3:15 am)
Wind Speed11.4 mph21.9 mph (5:29 am)
Wind Gust31.1 mph (5:29 am)
Weather ElementAverage
Visibility8.1 mi
Wind DirectionWSW (262.7 °)

Weather ElementTotal
Precipitation0.85 in
Heating Degree Days18.5 (Base 65)
Averaged from 33 records on May 15, 2014
WEATHER CONDITIONS BREAKOUT
WIND DIRECTION BREAKOUT
WEATHER BY HOUR - MAY 15, 2014
[ °C ]   °F
Local TimeTemperatureDewpointHumidityBarometerVisibilityWind DirectionWind SpeedGust SpeedPrecipitationEventsConditions
12:38 AM44.1 °F42.1 °F93 %29.99 in4.0 miNNW (330°)10.4 mph0.07 inRainLight Rain
12:48 AM44.6 °F42.8 °F93 %29.99 in5.0 miNNW (340°)10.4 mph0.08 inRainLight Rain
12:52 AM45.0 °F42.1 °F90 %29.99 in5.0 miNNW (340°)12.7 mph0.09 inRainLight Rain
1:16 AM45.0 °F42.1 °F90 %29.97 in5.0 miNNW (340°)11.5 mph20.7 mph0.04 inRainRain
1:50 AM44.6 °F42.8 °F93 %29.95 in6.0 miNNW (340°)11.5 mph0.08 inRainLight Rain
1:52 AM45.0 °F42.1 °F90 %29.96 in6.0 miNNW (340°)15.0 mph21.9 mph0.08 inRainLight Rain
2:17 AM45.0 °F42.1 °F90 %29.94 in6.0 miNNW (340°)13.8 mph0.04 inRainLight Rain
2:52 AM44.1 °F41.0 °F89 %29.93 in9.0 miNNW (340°)13.8 mph0.05 inRainLight Rain
3:15 AM44.1 °F41.0 °F89 %29.91 in6.0 miNNW (340°)16.1 mph21.9 mph0.01 inRainLight Rain
3:35 AM44.1 °F41.0 °F89 %29.92 in6.0 miNorth (350°)12.7 mph0.02 inRainLight Rain
3:52 AM44.1 °F41.0 °F89 %29.92 in5.0 miNorth (350°)15.0 mph24.2 mph0.03 inRainLight Rain
4:52 AM44.1 °F41.0 °F89 %29.92 in6.0 miNorth (350°)17.3 mph25.3 mph0.05 inRainLight Rain
5:29 AM43.0 °F39.0 °F86 %29.93 in7.0 miNorth (360°)21.9 mph31.1 mph0.03 inRainLight Rain
5:52 AM42.1 °F39.0 °F89 %29.94 in7.0 miNorth (350°)18.4 mph26.5 mph0.07 inRainLight Rain
6:52 AM42.1 °F39.0 °F89 %29.96 in10.0 miNorth (350°)13.8 mph24.2 mph0.04 inRainLight Rain
7:52 AM42.1 °F37.9 °F85 %29.97 in10.0 miNorth (350°)18.4 mph31.1 mph0.01 inOvercast
8:52 AM42.1 °F37.9 °F85 %29.99 in10.0 miNorth (350°)9.2 mph20.7 mph0.01 inRainLight Rain
9:33 AM41.0 °F37.9 °F89 %29.99 in9.0 miNorth (350°)10.4 mph0.02 inRainLight Rain
9:45 AM42.1 °F37.9 °F85 %29.99 in6.0 miNNW (330°)9.2 mph0.02 inRainLight Rain
10:52 AM44.1 °F39.0 °F82 %30.01 in10.0 miNW (320°)12.7 mph19.6 mph0.01 inOvercast
10:57 AM45.0 °F39.0 °F80 %29.99 in10.0 miNNW (330°)11.5 mph19.6 mphOvercast
11:52 AM51.1 °F42.1 °F71 %29.99 in10.0 miNW (320°)12.7 mphScattered Clouds
12:52 PM53.1 °F37.9 °F57 %29.97 in10.0 miNorth (350°)12.7 mph24.2 mphPartly Cloudy
2:52 PM50.0 °F37.9 °F63 %30.00 in10.0 miEast (80°)4.6 mphOvercast
3:52 PM50.0 °F37.9 °F63 %30.01 in10.0 miEast (100°)5.8 mphOvercast
4:52 PM48.9 °F35.1 °F59 %30.02 in10.0 miENE (70°)8.1 mphOvercast
5:52 PM50.0 °F33.1 °F52 %30.04 in10.0 miENE (70°)9.2 mphOvercast
6:52 PM46.9 °F33.1 °F59 %30.06 in10.0 miENE (60°)6.9 mphMostly Cloudy
7:52 PM45.0 °F33.1 °F63 %30.08 in10.0 miEast (100°)9.2 mphOvercast
8:52 PM42.1 °F33.1 °F70 %30.09 in10.0 miEast (80°)5.8 mphClear
9:52 PM41.0 °F33.1 °F73 %30.10 in10.0 miEast (100°)5.8 mphClear
10:52 PM39.9 °F34.0 °F79 %30.10 in10.0 miEast (90°)4.6 mphClear
11:52 PM39.9 °F34.0 °F79 %30.08 in10.0 miENE (60°)5.8 mphOvercast
Hourly data recorded from KPWK, located miles away from Chicago, Illinois







STORIES FROM OUR PARTNERS